Time,TemperatureF,DewpointF,PressureIn,WindDirection,WindDirectionDegrees,WindSpeedMPH,WindSpeedGustMPH,Humidity,HourlyPrecipIn,Conditions,Clouds,dailyrainin,SoftwareType,DateUTC
2017-12-17 00:03:00,62.7,62.7,30.22,NE,40,0.0,0.0,100,0.00,,---,0.00,VWS V14.01,2017-12-17 05:03:00,
2017-12-17 00:08:00,62.7,62.7,30.22,NE,40,0.0,0.0,100,0.00,,---,0.00,VWS V14.01,2017-12-17 05:08:00,
2017-12-17 00:09:00,62.7,62.7,30.22,NE,40,0.0,0.0,100,0.00,,---,0.00,VWS V14.01,2017-12-17 05:09:00,
2017-12-17 00:14:00,62.6,62.6,30.22,NE,40,0.0,0.0,100,0.00,,---,0.00,VWS V14.01,2017-12-17 05:14:00,
2017-12-17 00:15:00,62.6,62.6,30.22,NE,40,0.0,0.0,100,0.00,,---,0.00,VWS V14.01,2017-12-17 05:15:00,
2017-12-17 00:16:00,62.6,62.6,30.22,NE,40,0.0,0.0,100,0.00,,---,0.00,VWS V14.01,2017-12-17 05:16:00,
2017-12-17 00:20:00,62.6,62.6,30.22,NE,40,0.0,0.0,100,0.00,,---,0.00,VWS V14.01,2017-12-17 05:20:00,
2017-12-17 00:25:00,62.4,62.4,30.22,NE,40,0.0,0.0,100,0.00,,---,0.00,VWS V14.01,2017-12-17 05:25:00,
2017-12-17 00:27:00,62.4,62.4,30.22,NE,40,0.0,0.0,100,0.00,,---,0.00,VWS V14.01,2017-12-17 05:27:00,
2017-12-17 00:32:00,62.4,62.4,30.22,NE,40,0.0,0.0,100,0.00,,---,0.00,VWS V14.01,2017-12-17 05:32:00,
2017-12-17 00:34:00,62.4,62.4,30.22,NE,40,0.0,0.0,100,0.00,,---,0.00,VWS V14.01,2017-12-17 05:34:00,
2017-12-17 00:35:00,62.4,62.4,30.22,NE,40,0.0,0.0,100,0.00,,---,0.00,VWS V14.01,2017-12-17 05:35:00,
2017-12-17 00:39:00,62.4,62.4,30.22,NE,40,0.0,0.0,100,0.00,,---,0.00,VWS V14.01,2017-12-17 05:39:00,
2017-12-17 00:42:00,62.4,62.4,30.22,NE,40,0.0,0.0,100,0.00,,---,0.00,VWS V14.01,2017-12-17 05:42:00,
2017-12-17 00:45:00,62.4,62.4,30.22,NE,40,0.0,0.0,100,0.00,,---,0.00,VWS V14.01,2017-12-17 05:45:00,
2017-12-17 00:50:00,62.3,62.3,30.22,NE,40,0.0,0.0,100,0.00,,---,0.00,VWS V14.01,2017-12-17 05:50:00,
2017-12-17 00:55:00,62.3,62.3,30.22,NE,40,0.0,0.0,100,0.00,,---,0.00,VWS V14.01,2017-12-17 05:55:00,
2017-12-17 00:56:00,62.3,62.3,30.22,NE,40,0.0,0.0,100,0.00,,---,0.00,VWS V14.01,2017-12-17 05:56:00,
2017-12-17 01:01:00,62.3,62.3,30.21,NE,40,0.0,0.0,100,0.00,,---,0.00,VWS V14.01,2017-12-17 06:01:00,
2017-12-17 01:02:00,62.3,62.3,30.21,NE,40,0.0,0.0,100,0.00,,---,0.00,VWS V14.01,2017-12-17 06:02:00,
2017-12-17 01:08:00,62.1,62.1,30.21,NE,40,0.0,0.0,100,0.00,,---,0.00,VWS V14.01,2017-12-17 06:08:00,
2017-12-17 01:13:00,62.1,62.1,30.21,NE,40,0.0,0.0,100,0.00,,---,0.00,VWS V14.01,2017-12-17 06:13:00,
2017-12-17 01:18:00,62.0,62.0,30.21,NE,40,0.0,0.0,100,0.00,,---,0.00,VWS V14.01,2017-12-17 06:18:00,
2017-12-17 01:19:00,62.0,62.0,30.21,NE,40,0.0,0.0,100,0.00,,---,0.00,VWS V14.01,2017-12-17 06:19:00,
2017-12-17 01:24:00,62.0,62.0,30.21,NE,40,0.0,0.0,100,0.00,,---,0.00,VWS V14.01,2017-12-17 06:24:00,
2017-12-17 01:25:00,62.0,62.0,30.21,NE,40,0.0,0.0,100,0.00,,---,0.00,VWS V14.01,2017-12-17 06:25:00,
2017-12-17 01:30:00,62.0,62.0,30.21,NE,40,0.0,0.0,100,0.00,,---,0.00,VWS V14.01,2017-12-17 06:30:00,
2017-12-17 01:32:00,61.8,61.8,30.21,NE,40,0.0,0.0,100,0.00,,---,0.00,VWS V14.01,2017-12-17 06:32:00,
2017-12-17 01:33:00,61.8,61.8,30.21,NE,40,0.0,0.0,100,0.00,,---,0.00,VWS V14.01,2017-12-17 06:33:00,
2017-12-17 01:38:00,61.8,61.8,30.21,NE,40,0.0,0.0,100,0.00,,---,0.00,VWS V14.01,2017-12-17 06:38:00,
2017-12-17 01:41:00,61.6,61.6,30.21,NE,40,0.0,0.0,100,0.00,,---,0.00,VWS V14.01,2017-12-17 06:41:00,
2017-12-17 01:43:00,61.6,61.6,30.21,NE,40,0.0,0.0,100,0.00,,---,0.00,VWS V14.01,2017-12-17 06:43:00,
2017-12-17 01:48:00,61.5,61.5,30.21,NE,40,0.0,0.0,100,0.00,,---,0.00,VWS V14.01,2017-12-17 06:48:00,
2017-12-17 01:49:00,61.5,61.5,30.21,NE,40,0.0,0.0,100,0.00,,---,0.00,VWS V14.01,2017-12-17 06:49:00,
2017-12-17 01:54:00,61.5,61.5,30.21,NE,40,0.0,0.0,100,0.00,,---,0.00,VWS V14.01,2017-12-17 06:54:00,
2017-12-17 01:56:00,61.5,61.5,30.21,NE,40,0.0,0.0,100,0.00,,---,0.00,VWS V14.01,2017-12-17 06:56:00,
2017-12-17 01:58:00,61.3,61.3,30.21,NE,40,0.0,0.0,100,0.00,,---,0.00,VWS V14.01,2017-12-17 06:58:00,
2017-12-17 02:01:00,61.3,61.3,30.21,NE,40,0.0,0.0,100,0.00,,---,0.00,VWS V14.01,2017-12-17 07:01:00,
2017-12-17 02:05:00,61.3,61.3,30.21,NE,40,0.0,0.0,100,0.00,,---,0.00,VWS V14.01,2017-12-17 07:05:00,
2017-12-17 02:07:00,61.3,61.3,30.21,NE,40,0.0,0.0,100,0.00,,---,0.00,VWS V14.01,2017-12-17 07:07:00,
2017-12-17 02:10:00,61.3,61.3,30.21,NE,40,0.0,0.0,100,0.00,,---,0.00,VWS V14.01,2017-12-17 07:10:00,
2017-12-17 02:12:00,61.3,61.3,30.21,NE,40,0.0,0.0,100,0.00,,---,0.00,VWS V14.01,2017-12-17 07:12:00,
2017-12-17 02:17:00,61.2,61.2,30.20,NE,40,0.0,0.0,100,0.00,,---,0.00,VWS V14.01,2017-12-17 07:17:00,
2017-12-17 02:18:00,61.2,61.2,30.20,NE,40,0.0,0.0,100,0.00,,---,0.00,VWS V14.01,2017-12-17 07:18:00,
2017-12-17 02:21:00,61.2,61.2,30.20,NE,40,0.0,0.0,100,0.00,,---,0.00,VWS V14.01,2017-12-17 07:21:00,
2017-12-17 02:23:00,61.2,61.2,30.20,NE,40,0.0,0.0,100,0.00,,---,0.00,VWS V14.01,2017-12-17 07:23:00,
2017-12-17 02:27:00,61.2,61.2,30.20,NE,40,0.0,0.0,100,0.00,,---,0.00,VWS V14.01,2017-12-17 07:27:00,
2017-12-17 02:28:00,61.2,61.2,30.20,NE,40,0.0,0.0,100,0.00,,---,0.00,VWS V14.01,2017-12-17 07:28:00,
2017-12-17 02:33:00,61.2,61.2,30.20,NE,40,0.0,0.0,100,0.00,,---,0.00,VWS V14.01,2017-12-17 07:33:00,
2017-12-17 02:34:00,61.2,61.2,30.20,NE,40,0.0,0.0,100,0.00,,---,0.00,VWS V14.01,2017-12-17 07:34:00,
2017-12-17 02:36:00,61.2,61.2,30.20,NE,40,0.0,0.0,100,0.00,,---,0.00,VWS V14.01,2017-12-17 07:36:00,
2017-12-17 02:41:00,61.2,61.2,30.20,NE,40,0.0,0.0,100,0.00,,---,0.00,VWS V14.01,2017-12-17 07:41:00,
2017-12-17 02:46:00,61.2,61.2,30.20,NE,40,0.0,0.0,100,0.00,,---,0.00,VWS V14.01,2017-12-17 07:46:00,
2017-12-17 02:48:00,61.2,61.2,30.20,NE,40,0.0,0.0,100,0.00,,---,0.00,VWS V14.01,2017-12-17 07:48:00,
2017-12-17 02:49:00,61.2,61.2,30.20,NE,40,0.0,0.0,100,0.00,,---,0.00,VWS V14.01,2017-12-17 07:49:00,
2017-12-17 02:53:00,61.2,61.2,30.20,NE,40,0.0,0.0,100,0.00,,---,0.00,VWS V14.01,2017-12-17 07:53:00,
2017-12-17 02:58:00,61.3,61.3,30.20,NE,40,0.0,0.0,100,0.00,,---,0.00,VWS V14.01,2017-12-17 07:58:00,
2017-12-17 02:59:00,61.3,61.3,30.20,NE,40,0.0,0.0,100,0.00,,---,0.00,VWS V14.01,2017-12-17 07:59:00,
2017-12-17 03:04:00,61.3,61.3,30.20,NE,40,0.0,0.0,100,0.00,,---,0.00,VWS V14.01,2017-12-17 08:04:00,
2017-12-17 03:05:00,61.3,61.3,30.20,NE,40,0.0,0.0,100,0.00,,---,0.00,VWS V14.01,2017-12-17 08:05:00,
2017-12-17 03:10:00,61.3,61.3,30.20,NE,40,0.0,0.0,100,0.00,,---,0.00,VWS V14.01,2017-12-17 08:10:00,
2017-12-17 03:12:00,61.2,61.2,30.20,NE,40,0.0,0.0,100,0.00,,---,0.00,VWS V14.01,2017-12-17 08:12:00,
2017-12-17 03:15:00,61.2,61.2,30.20,NE,40,0.0,0.0,100,0.00,,---,0.00,VWS V14.01,2017-12-17 08:15:00,
2017-12-17 03:17:00,61.2,61.2,30.20,NE,40,0.0,0.0,100,0.00,,---,0.00,VWS V14.01,2017-12-17 08:17:00,
2017-12-17 03:22:00,61.2,61.2,30.20,NE,40,0.0,0.0,100,0.00,,---,0.00,VWS V14.01,2017-12-17 08:22:00,
2017-12-17 03:24:00,61.2,61.2,30.20,NE,40,0.0,0.0,100,0.00,,---,0.00,VWS V14.01,2017-12-17 08:24:00,
2017-12-17 03:26:00,61.2,61.2,30.20,NE,40,0.0,0.0,100,0.00,,---,0.00,VWS V14.01,2017-12-17 08:26:00,
2017-12-17 03:30:00,61.2,61.2,30.20,NE,40,0.0,0.0,100,0.00,,---,0.00,VWS V14.01,2017-12-17 08:30:00,
2017-12-17 03:35:00,61.0,61.0,30.20,NE,40,0.0,0.0,100,0.00,,---,0.00,VWS V14.01,2017-12-17 08:35:00,
2017-12-17 03:36:00,61.0,61.0,30.20,NE,40,0.0,0.0,100,0.00,,---,0.00,VWS V14.01,2017-12-17 08:36:00,
2017-12-17 03:39:00,61.0,61.0,30.20,NE,40,0.0,0.0,100,0.00,,---,0.00,VWS V14.01,2017-12-17 08:39:00,
2017-12-17 03:43:00,61.0,61.0,30.20,NE,40,0.0,0.0,100,0.00,,---,0.00,VWS V14.01,2017-12-17 08:43:00,
2017-12-17 03:46:00,61.0,61.0,30.20,NE,40,0.0,0.0,100,0.00,,---,0.00,VWS V14.01,2017-12-17 08:46:00,
2017-12-17 03:50:00,61.0,61.0,30.20,NE,40,0.0,0.0,100,0.00,,---,0.00,VWS V14.01,2017-12-17 08:50:00,
2017-12-17 03:55:00,61.0,61.0,30.20,NE,40,0.0,0.0,100,0.00,,---,0.00,VWS V14.01,2017-12-17 08:55:00,
2017-12-17 03:59:00,61.2,61.2,30.20,NE,40,0.0,0.0,100,0.00,,---,0.00,VWS V14.01,2017-12-17 08:59:00,
2017-12-17 04:02:00,61.2,61.2,30.20,NE,40,0.0,0.0,100,0.00,,---,0.00,VWS V14.01,2017-12-17 09:02:00,
2017-12-17 04:06:00,61.2,61.2,30.20,NE,40,0.0,0.0,100,0.00,,---,0.00,VWS V14.01,2017-12-17 09:06:00,
2017-12-17 04:07:00,61.2,61.2,30.20,NE,40,0.0,0.0,100,0.00,,---,0.00,VWS V14.01,2017-12-17 09:07:00,
2017-12-17 04:13:00,61.3,61.3,30.20,NE,40,0.0,0.0,100,0.00,,---,0.00,VWS V14.01,2017-12-17 09:13:00,
2017-12-17 04:15:00,61.3,61.3,30.20,NE,40,0.0,0.0,100,0.00,,---,0.00,VWS V14.01,2017-12-17 09:15:00,
2017-12-17 04:19:00,61.3,61.3,30.20,NE,40,0.0,0.0,100,0.00,,---,0.00,VWS V14.01,2017-12-17 09:19:00,
2017-12-17 04:24:00,61.3,61.3,30.20,NE,40,0.0,0.0,100,0.00,,---,0.00,VWS V14.01,2017-12-17 09:24:00,
2017-12-17 04:26:00,61.5,61.5,30.20,NE,40,0.0,0.0,100,0.00,,---,0.00,VWS V14.01,2017-12-17 09:26:00,
2017-12-17 04:27:00,61.5,61.5,30.20,NE,40,0.0,0.0,100,0.00,,---,0.00,VWS V14.01,2017-12-17 09:27:00,
2017-12-17 04:32:00,61.5,61.5,30.19,NE,40,0.0,0.0,100,0.00,,---,0.00,VWS V14.01,2017-12-17 09:32:00,
2017-12-17 04:34:00,61.5,61.5,30.19,NE,40,0.0,0.0,100,0.00,,---,0.00,VWS V14.01,2017-12-17 09:34:00,
2017-12-17 04:38:00,61.6,61.6,30.19,NE,40,0.0,0.0,100,0.00,,---,0.00,VWS V14.01,2017-12-17 09:38:00,
2017-12-17 04:40:00,61.6,61.6,30.19,NE,40,0.0,0.0,100,0.00,,---,0.00,VWS V14.01,2017-12-17 09:40:00,
2017-12-17 04:45:00,61.6,61.6,30.19,NE,40,0.0,0.0,100,0.00,,---,0.00,VWS V14.01,2017-12-17 09:45:00,
2017-12-17 04:46:00,61.6,61.6,30.19,NE,40,0.0,0.0,100,0.00,,---,0.00,VWS V14.01,2017-12-17 09:46:00,
2017-12-17 04:48:00,61.6,61.6,30.19,NE,40,0.0,0.0,100,0.00,,---,0.00,VWS V14.01,2017-12-17 09:48:00,
2017-12-17 04:52:00,61.6,61.6,30.19,NE,40,0.0,0.0,100,0.00,,---,0.00,VWS V14.01,2017-12-17 09:52:00,
2017-12-17 04:57:00,61.8,61.8,30.19,NE,40,0.0,0.0,100,0.00,,---,0.00,VWS V14.01,2017-12-17 09:57:00,
2017-12-17 04:58:00,61.8,61.8,30.19,NE,40,0.0,0.0,100,0.00,,---,0.00,VWS V14.01,2017-12-17 09:58:00,
2017-12-17 05:03:00,61.8,61.8,30.19,NE,40,0.0,0.0,100,0.00,,---,0.00,VWS V14.01,2017-12-17 10:03:00,
2017-12-17 05:06:00,61.8,61.8,30.19,NE,40,0.0,0.0,100,0.00,,---,0.00,VWS V14.01,2017-12-17 10:06:00,
2017-12-17 05:09:00,61.8,61.8,30.19,NE,40,0.0,0.0,100,0.00,,---,0.00,VWS V14.01,2017-12-17 10:09:00,
2017-12-17 05:14:00,61.8,61.8,30.19,NE,40,0.0,0.0,100,0.00,,---,0.00,VWS V14.01,2017-12-17 10:14:00,
2017-12-17 05:15:00,61.8,61.8,30.19,NE,40,0.0,0.0,100,0.00,,---,0.00,VWS V14.01,2017-12-17 10:15:00,
2017-12-17 05:20:00,61.8,61.8,30.19,NE,40,0.0,0.0,100,0.00,,---,0.00,VWS V14.01,2017-12-17 10:20:00,
2017-12-17 05:21:00,61.8,61.8,30.19,NE,40,0.0,0.0,100,0.00,,---,0.00,VWS V14.01,2017-12-17 10:21:00,
2017-12-17 05:27:00,62.0,62.0,30.19,NE,40,0.0,0.0,100,0.00,,---,0.00,VWS V14.01,2017-12-17 10:27:00,
2017-12-17 05:31:00,62.1,62.1,30.19,NE,40,0.0,0.0,100,0.00,,---,0.00,VWS V14.01,2017-12-17 10:31:00,
2017-12-17 05:32:00,62.3,62.3,30.19,NE,40,0.0,0.0,100,0.00,,---,0.00,VWS V14.01,2017-12-17 10:32:00,
2017-12-17 05:37:00,62.4,62.4,30.19,NE,40,0.0,0.0,100,0.00,,---,0.00,VWS V14.01,2017-12-17 10:37:00,
2017-12-17 05:38:00,62.4,62.4,30.19,NE,40,0.0,0.0,100,0.00,,---,0.00,VWS V14.01,2017-12-17 10:38:00,
2017-12-17 05:43:00,62.4,62.4,30.19,NE,40,0.0,0.0,100,0.00,,---,0.00,VWS V14.01,2017-12-17 10:43:00,
2017-12-17 05:46:00,62.3,62.3,30.20,NE,40,0.0,0.0,100,0.00,,---,0.00,VWS V14.01,2017-12-17 10:46:00,
2017-12-17 05:51:00,62.3,62.3,30.20,NE,40,0.0,0.0,100,0.00,,---,0.00,VWS V14.01,2017-12-17 10:51:00,
2017-12-17 05:53:00,62.3,62.3,30.20,NE,40,0.0,0.0,100,0.00,,---,0.00,VWS V14.01,2017-12-17 10:53:00,
2017-12-17 05:57:00,62.3,62.3,30.20,NE,40,0.0,0.0,100,0.00,,---,0.00,VWS V14.01,2017-12-17 10:57:00,
2017-12-17 06:00:00,62.3,62.3,30.20,NE,40,0.0,0.0,100,0.00,,---,0.00,VWS V14.01,2017-12-17 11:00:00,
2017-12-17 06:02:00,62.3,62.3,30.20,NE,40,0.0,0.0,100,0.00,,---,0.00,VWS V14.01,2017-12-17 11:02:00,
2017-12-17 06:07:00,62.3,62.3,30.20,NE,40,0.0,0.0,100,0.00,,---,0.00,VWS V14.01,2017-12-17 11:07:00,
2017-12-17 06:11:00,62.3,62.3,30.20,NE,40,0.0,0.0,100,0.00,,---,0.00,VWS V14.01,2017-12-17 11:11:00,
2017-12-17 06:13:00,62.3,62.3,30.20,NE,40,0.0,0.0,100,0.00,,---,0.00,VWS V14.01,2017-12-17 11:13:00,
2017-12-17 06:18:00,62.3,62.3,30.21,NE,40,0.0,0.0,100,0.00,,---,0.00,VWS V14.01,2017-12-17 11:18:00,
2017-12-17 06:20:00,62.3,62.3,30.21,NE,40,0.0,0.0,100,0.00,,---,0.00,VWS V14.01,2017-12-17 11:20:00,
2017-12-17 06:22:00,62.4,62.4,30.21,NE,40,0.0,0.0,100,0.00,,---,0.00,VWS V14.01,2017-12-17 11:22:00,
2017-12-17 06:26:00,62.4,62.4,30.21,NE,40,0.0,0.0,100,0.00,,---,0.00,VWS V14.01,2017-12-17 11:26:00,
2017-12-17 06:32:00,62.4,62.4,30.21,NE,40,0.0,0.0,100,0.00,,---,0.00,VWS V14.01,2017-12-17 11:32:00,
2017-12-17 06:33:00,62.4,62.4,30.21,NE,40,0.0,0.0,100,0.00,,---,0.00,VWS V14.01,2017-12-17 11:33:00,
2017-12-17 06:38:00,62.3,62.3,30.21,NE,40,0.0,0.0,100,0.00,,---,0.00,VWS V14.01,2017-12-17 11:38:00,
2017-12-17 06:43:00,62.3,62.3,30.21,NE,40,0.0,0.0,100,0.00,,---,0.00,VWS V14.01,2017-12-17 11:43:00,
2017-12-17 06:46:00,62.3,62.3,30.21,NE,40,0.0,0.0,100,0.00,,---,0.00,VWS V14.01,2017-12-17 11:46:00,
2017-12-17 06:51:00,62.3,62.3,30.21,NE,40,0.0,0.0,100,0.00,,---,0.00,VWS V14.01,2017-12-17 11:51:00,
2017-12-17 06:54:00,62.3,62.3,30.21,NE,40,0.0,0.0,100,0.00,,---,0.00,VWS V14.01,2017-12-17 11:54:00,
2017-12-17 06:58:00,62.3,62.3,30.21,NE,40,0.0,0.0,100,0.00,,---,0.00,VWS V14.01,2017-12-17 11:58:00,
2017-12-17 07:02:00,62.3,62.3,30.21,NE,40,0.0,0.0,100,0.00,,---,0.00,VWS V14.01,2017-12-17 12:02:00,
2017-12-17 07:05:00,62.3,62.3,30.21,NE,40,0.0,0.0,100,0.00,,---,0.00,VWS V14.01,2017-12-17 12:05:00,
2017-12-17 07:09:00,62.3,62.3,30.21,NE,40,0.0,0.0,100,0.00,,---,0.00,VWS V14.01,2017-12-17 12:09:00,
2017-12-17 07:10:00,62.3,62.3,30.21,NE,40,0.0,0.0,100,0.00,,---,0.00,VWS V14.01,2017-12-17 12:10:00,
2017-12-17 07:14:00,62.4,62.4,30.21,NE,40,0.0,0.0,100,0.00,,---,0.00,VWS V14.01,2017-12-17 12:14:00,
2017-12-17 07:19:00,62.4,62.4,30.21,NE,40,0.0,0.0,100,0.00,,---,0.00,VWS V14.01,2017-12-17 12:19:00,
2017-12-17 07:20:00,62.4,62.4,30.21,NE,40,0.0,0.0,100,0.00,,---,0.00,VWS V14.01,2017-12-17 12:20:00,
2017-12-17 07:25:00,62.4,62.4,30.21,NE,40,0.0,0.0,100,0.00,,---,0.00,VWS V14.01,2017-12-17 12:25:00,
2017-12-17 07:27:00,62.6,62.6,30.21,NE,40,0.0,0.0,100,0.00,,---,0.00,VWS V14.01,2017-12-17 12:27:00,
2017-12-17 07:32:00,62.6,62.6,30.22,NE,40,0.0,0.0,100,0.00,,---,0.00,VWS V14.01,2017-12-17 12:32:00,
2017-12-17 07:34:00,62.6,62.6,30.22,NE,40,0.0,0.0,100,0.00,,---,0.00,VWS V14.01,2017-12-17 12:34:00,
2017-12-17 07:37:00,62.6,62.6,30.22,NE,40,0.0,0.0,100,0.00,,---,0.00,VWS V14.01,2017-12-17 12:37:00,
2017-12-17 07:42:00,62.6,62.6,30.22,NE,40,0.0,0.0,100,0.00,,---,0.00,VWS V14.01,2017-12-17 12:42:00,
2017-12-17 07:44:00,62.6,62.6,30.22,NE,40,0.0,0.0,100,0.00,,---,0.00,VWS V14.01,2017-12-17 12:44:00,
2017-12-17 07:49:00,62.9,62.9,30.22,NE,40,1.0,3.0,100,0.00,,---,0.00,VWS V14.01,2017-12-17 12:49:00,
2017-12-17 07:50:00,63.1,63.1,30.22,NE,40,0.0,3.0,100,0.00,,---,0.00,VWS V14.01,2017-12-17 12:50:00,
2017-12-17 07:55:00,63.9,63.9,30.22,NE,40,0.0,3.0,100,0.00,,---,0.00,VWS V14.01,2017-12-17 12:55:00,
2017-12-17 07:56:00,63.9,63.9,30.22,NE,40,1.0,3.0,100,0.00,,---,0.00,VWS V14.01,2017-12-17 12:56:00,
2017-12-17 08:01:00,65.0,65.0,30.21,NE,40,0.0,6.0,100,0.00,,---,0.00,VWS V14.01,2017-12-17 13:01:00,
2017-12-17 08:04:00,65.6,65.6,30.21,NE,40,3.0,4.0,100,0.00,,---,0.00,VWS V14.01,2017-12-17 13:04:00,
2017-12-17 08:09:00,66.6,66.6,30.21,NE,40,2.0,6.0,100,0.00,,---,0.00,VWS V14.01,2017-12-17 13:09:00,
2017-12-17 08:10:00,66.6,66.6,30.21,NE,40,1.0,6.0,100,0.00,,---,0.00,VWS V14.01,2017-12-17 13:10:00,
2017-12-17 08:13:00,67.1,67.1,30.21,NE,40,0.0,6.0,100,0.00,,---,0.00,VWS V14.01,2017-12-17 13:13:00,
2017-12-17 08:18:00,67.6,67.6,30.22,NE,40,3.0,6.0,100,0.00,,---,0.00,VWS V14.01,2017-12-17 13:18:00,
2017-12-17 08:22:00,68.1,68.1,30.22,NE,40,2.0,6.0,100,0.00,,---,0.00,VWS V14.01,2017-12-17 13:22:00,
2017-12-17 08:25:00,68.3,68.3,30.22,NE,40,1.0,6.0,100,0.00,,---,0.00,VWS V14.01,2017-12-17 13:25:00,
2017-12-17 08:30:00,68.6,68.6,30.22,NE,40,0.0,6.0,100,0.00,,---,0.00,VWS V14.01,2017-12-17 13:30:00,
2017-12-17 08:31:00,68.6,68.6,30.22,NE,40,3.0,6.0,100,0.00,,---,0.00,VWS V14.01,2017-12-17 13:31:00,
2017-12-17 08:36:00,68.9,68.9,30.22,NE,40,1.0,5.0,100,0.00,,---,0.00,VWS V14.01,2017-12-17 13:36:00,
2017-12-17 08:39:00,69.1,69.1,30.22,NE,40,3.0,5.0,100,0.00,,---,0.00,VWS V14.01,2017-12-17 13:39:00,
2017-12-17 08:42:00,69.3,69.3,30.22,NE,40,1.0,5.0,100,0.00,,---,0.00,VWS V14.01,2017-12-17 13:42:00,
2017-12-17 08:46:00,69.6,69.6,30.23,NE,40,0.0,7.0,100,0.00,,---,0.00,VWS V14.01,2017-12-17 13:46:00,
2017-12-17 08:47:00,69.6,69.6,30.23,NE,40,0.0,7.0,100,0.00,,---,0.00,VWS V14.01,2017-12-17 13:47:00,
2017-12-17 08:52:00,69.9,69.9,30.23,NE,40,4.0,7.0,100,0.00,,---,0.00,VWS V14.01,2017-12-17 13:52:00,
2017-12-17 08:53:00,70.1,70.1,30.23,NE,40,0.0,7.0,100,0.00,,---,0.00,VWS V14.01,2017-12-17 13:53:00,
2017-12-17 08:58:00,70.6,70.6,30.23,NE,40,1.0,7.0,100,0.00,,---,0.00,VWS V14.01,2017-12-17 13:58:00,
2017-12-17 08:59:00,70.6,70.6,30.23,NE,40,0.0,7.0,100,0.00,,---,0.00,VWS V14.01,2017-12-17 13:59:00,
2017-12-17 09:04:00,70.9,70.9,30.23,NE,41,2.0,5.0,100,0.00,,---,0.00,VWS V14.01,2017-12-17 14:04:00,
2017-12-17 09:06:00,71.1,71.1,30.23,NE,42,0.0,7.0,100,0.00,,---,0.00,VWS V14.01,2017-12-17 14:06:00,
2017-12-17 09:09:00,71.3,71.3,30.23,NE,42,5.0,7.0,100,0.00,,---,0.00,VWS V14.01,2017-12-17 14:09:00,
2017-12-17 09:11:00,71.5,71.5,30.23,NE,42,3.0,9.0,100,0.00,,---,0.00,VWS V14.01,2017-12-17 14:11:00,
2017-12-17 09:16:00,72.0,72.0,30.24,NE,43,2.0,9.0,100,0.00,,---,0.00,VWS V14.01,2017-12-17 14:16:00,
2017-12-17 09:17:00,72.1,72.1,30.24,NE,44,2.0,9.0,100,0.00,,---,0.00,VWS V14.01,2017-12-17 14:17:00,
2017-12-17 09:22:00,72.7,72.7,30.24,NE,45,5.0,9.0,100,0.00,,---,0.00,VWS V14.01,2017-12-17 14:22:00,
2017-12-17 09:27:00,73.3,73.3,30.24,NE,46,3.0,9.0,100,0.00,,---,0.00,VWS V14.01,2017-12-17 14:27:00,
2017-12-17 09:32:00,73.9,73.9,30.24,NE,46,2.0,3.0,100,0.00,,---,0.00,VWS V14.01,2017-12-17 14:32:00,
2017-12-17 09:36:00,74.2,73.9,30.24,NE,46,2.0,4.0,99,0.00,,---,0.00,VWS V14.01,2017-12-17 14:36:00,
2017-12-17 09:37:00,74.2,73.6,30.24,NE,46,2.0,4.0,98,0.00,,---,0.00,VWS V14.01,2017-12-17 14:37:00,
2017-12-17 09:43:00,74.4,73.2,30.24,NE,46,0.0,7.0,96,0.00,,---,0.00,VWS V14.01,2017-12-17 14:43:00,
2017-12-17 09:44:00,74.6,73.4,30.24,NE,46,1.0,7.0,96,0.00,,---,0.00,VWS V14.01,2017-12-17 14:44:00,
2017-12-17 09:49:00,74.9,73.1,30.24,NE,46,2.0,7.0,94,0.00,,---,0.00,VWS V14.01,2017-12-17 14:49:00,
2017-12-17 09:52:00,75.1,72.9,30.24,NE,46,0.0,7.0,93,0.00,,---,0.00,VWS V14.01,2017-12-17 14:52:00,
2017-12-17 09:55:00,75.3,72.8,30.24,NE,46,0.0,7.0,92,0.00,,---,0.00,VWS V14.01,2017-12-17 14:55:00,
2017-12-17 10:00:00,75.8,72.7,30.24,NE,46,3.0,7.0,90,0.00,,---,0.00,VWS V14.01,2017-12-17 15:00:00,
2017-12-17 10:01:00,76.0,72.9,30.25,NE,46,0.0,7.0,90,0.00,,---,0.00,VWS V14.01,2017-12-17 15:01:00,
2017-12-17 10:03:00,76.0,72.5,30.25,NE,47,2.0,6.0,89,0.00,,---,0.00,VWS V14.01,2017-12-17 15:03:00,
2017-12-17 10:07:00,76.3,72.2,30.25,NE,47,2.0,6.0,87,0.00,,---,0.00,VWS V14.01,2017-12-17 15:07:00,
2017-12-17 10:12:00,76.7,71.9,30.25,NE,49,4.0,7.0,85,0.00,,---,0.00,VWS V14.01,2017-12-17 15:12:00,
2017-12-17 10:14:00,76.8,71.9,30.25,NE,49,1.0,7.0,85,0.00,,---,0.00,VWS V14.01,2017-12-17 15:14:00,
2017-12-17 10:18:00,77.2,71.6,30.25,NE,50,6.0,9.0,83,0.00,,---,0.00,VWS V14.01,2017-12-17 15:18:00,
2017-12-17 10:19:00,77.4,71.8,30.25,NE,51,4.0,9.0,83,0.00,,---,0.00,VWS V14.01,2017-12-17 15:19:00,
2017-12-17 10:24:00,77.9,72.0,30.25,NE,55,3.0,10.0,82,0.00,,---,0.00,VWS V14.01,2017-12-17 15:24:00,
2017-12-17 10:29:00,78.1,71.8,30.25,NE,55,2.0,10.0,81,0.00,,---,0.00,VWS V14.01,2017-12-17 15:29:00,
2017-12-17 10:34:00,78.5,72.2,30.25,NE,55,3.0,6.0,81,0.00,,---,0.00,VWS V14.01,2017-12-17 15:34:00,
2017-12-17 10:38:00,78.6,71.9,30.25,ENE,60,4.0,9.0,80,0.00,,---,0.00,VWS V14.01,2017-12-17 15:38:00,
2017-12-17 10:40:00,78.8,71.7,30.25,ENE,60,4.0,9.0,79,0.00,,---,0.00,VWS V14.01,2017-12-17 15:40:00,
2017-12-17 10:45:00,78.8,71.7,30.25,ENE,68,0.0,12.0,79,0.00,,---,0.00,VWS V14.01,2017-12-17 15:45:00,
2017-12-17 10:48:00,79.0,71.9,30.24,ENE,68,3.0,12.0,79,0.00,,---,0.00,VWS V14.01,2017-12-17 15:48:00,
2017-12-17 10:50:00,79.2,72.1,30.24,ENE,68,4.0,12.0,79,0.00,,---,0.00,VWS V14.01,2017-12-17 15:50:00,
2017-12-17 10:55:00,79.4,71.6,30.24,ENE,69,2.0,12.0,77,0.00,,---,0.00,VWS V14.01,2017-12-17 15:55:00,
2017-12-17 10:56:00,79.4,71.9,30.24,ENE,69,1.0,12.0,78,0.00,,---,0.00,VWS V14.01,2017-12-17 15:56:00,
2017-12-17 10:59:00,79.4,71.6,30.24,ENE,69,3.0,12.0,77,0.00,,---,0.00,VWS V14.01,2017-12-17 15:59:00,
2017-12-17 11:02:00,79.6,71.8,30.24,ENE,69,0.0,5.0,77,0.00,,---,0.00,VWS V14.01,2017-12-17 16:02:00,
2017-12-17 11:06:00,79.4,71.9,30.24,ENE,69,0.0,5.0,78,0.00,,---,0.00,VWS V14.01,2017-12-17 16:06:00,
2017-12-17 11:08:00,79.4,71.6,30.24,ENE,69,3.0,5.0,77,0.00,,---,0.00,VWS V14.01,2017-12-17 16:08:00,
2017-12-17 11:13:00,79.4,72.3,30.24,ENE,69,4.0,5.0,79,0.00,,---,0.00,VWS V14.01,2017-12-17 16:13:00,
2017-12-17 11:18:00,79.6,71.4,30.24,ENE,69,3.0,6.0,76,0.00,,---,0.00,VWS V14.01,2017-12-17 16:18:00,
2017-12-17 11:23:00,80.1,71.5,30.24,ENE,69,0.0,6.0,75,0.00,,---,0.00,VWS V14.01,2017-12-17 16:23:00,
2017-12-17 11:27:00,80.1,70.7,30.24,ENE,69,3.0,6.0,73,0.00,,---,0.00,VWS V14.01,2017-12-17 16:27:00,
2017-12-17 11:32:00,80.3,68.8,30.24,ENE,69,1.0,4.0,68,0.00,,---,0.00,VWS V14.01,2017-12-17 16:32:00,
2017-12-17 11:34:00,80.7,69.2,30.24,ENE,70,0.0,6.0,68,0.00,,---,0.00,VWS V14.01,2017-12-17 16:34:00,
2017-12-17 11:38:00,81.1,69.1,30.24,ENE,71,1.0,8.0,67,0.00,,---,0.00,VWS V14.01,2017-12-17 16:38:00,
2017-12-17 11:43:00,81.4,69.4,30.24,ENE,72,4.0,9.0,67,0.00,,---,0.00,VWS V14.01,2017-12-17 16:43:00,
2017-12-17 11:45:00,81.6,69.2,30.24,ENE,72,5.0,9.0,66,0.00,,---,0.00,VWS V14.01,2017-12-17 16:45:00,
2017-12-17 11:50:00,81.6,69.2,30.24,ENE,72,3.0,9.0,66,0.00,,---,0.00,VWS V14.01,2017-12-17 16:50:00,
2017-12-17 11:51:00,81.8,69.8,30.24,ENE,72,1.0,9.0,67,0.00,,---,0.00,VWS V14.01,2017-12-17 16:51:00,
2017-12-17 11:55:00,82.2,70.2,30.24,ENE,72,0.0,9.0,67,0.00,,---,0.00,VWS V14.01,2017-12-17 16:55:00,
2017-12-17 11:57:00,82.4,70.3,30.24,ENE,72,3.0,9.0,67,0.00,,---,0.00,VWS V14.01,2017-12-17 16:57:00,
2017-12-17 12:02:00,82.8,69.8,30.22,ENE,73,0.0,4.0,65,0.00,,---,0.00,VWS V14.01,2017-12-17 17:02:00,
2017-12-17 12:06:00,83.0,70.0,30.22,ENE,74,2.0,6.0,65,0.00,,---,0.00,VWS V14.01,2017-12-17 17:06:00,
2017-12-17 12:09:00,83.2,69.8,30.22,ENE,74,3.0,6.0,64,0.00,,---,0.00,VWS V14.01,2017-12-17 17:09:00,
2017-12-17 12:13:00,83.4,69.9,30.22,ENE,75,1.0,7.0,64,0.00,,---,0.00,VWS V14.01,2017-12-17 17:13:00,
2017-12-17 12:14:00,83.4,69.5,30.22,ENE,75,1.0,7.0,63,0.00,,---,0.00,VWS V14.01,2017-12-17 17:14:00,
2017-12-17 12:18:00,83.6,70.6,30.21,ENE,75,1.0,7.0,65,0.00,,---,0.00,VWS V14.01,2017-12-17 17:18:00,
2017-12-17 12:19:00,83.6,70.6,30.21,ENE,75,4.0,7.0,65,0.00,,---,0.00,VWS V14.01,2017-12-17 17:19:00,
2017-12-17 12:24:00,83.8,69.9,30.21,ENE,76,1.0,9.0,63,0.00,,---,0.00,VWS V14.01,2017-12-17 17:24:00,
2017-12-17 12:29:00,84.3,71.3,30.21,ENE,76,1.0,9.0,65,0.00,,---,0.00,VWS V14.01,2017-12-17 17:29:00,
2017-12-17 12:35:00,84.7,71.2,30.21,ENE,78,0.0,5.0,64,0.00,,---,0.00,VWS V14.01,2017-12-17 17:35:00,
2017-12-17 12:36:00,84.9,70.9,30.21,ENE,78,6.0,8.0,63,0.00,,---,0.00,VWS V14.01,2017-12-17 17:36:00,
2017-12-17 12:38:00,85.1,70.6,30.21,ENE,78,6.0,9.0,62,0.00,,---,0.00,VWS V14.01,2017-12-17 17:38:00,
2017-12-17 12:43:00,84.9,71.4,30.21,East,79,5.0,9.0,64,0.00,,---,0.00,VWS V14.01,2017-12-17 17:43:00,
2017-12-17 12:44:00,84.7,71.6,30.21,East,79,1.0,9.0,65,0.00,,---,0.00,VWS V14.01,2017-12-17 17:44:00,
2017-12-17 12:49:00,84.3,72.2,30.20,East,79,3.0,9.0,67,0.00,,---,0.00,VWS V14.01,2017-12-17 17:49:00,
2017-12-17 12:54:00,84.5,71.4,30.20,East,80,1.0,9.0,65,0.00,,---,0.00,VWS V14.01,2017-12-17 17:54:00,